Tracking 19800 objects as of 24-Jul-2019
HD Live streaming from Space Station
objects crossing your sky now

METEOR 1-13

Track METEOR 1-13 now!
10-day predictions
METEOR 1-13 is classified as:


NORAD ID: 6256
Int'l Code: 1972-085A
Perigee: 850.6 km
Apogee: 889.9 km
Inclination: 81.3 °
Period: 102.2 minutes
Semi major axis: 7241 km
RCS: 4.603 m2 (large)
Launch date: October 26, 1972
Source: Commonwealth of Independent States (former USSR) (CIS)
Launch site: PLESETSK MISSILE AND SPACE COMPLEX (PKMTR)
aabbcc
Your satellite tracking list
Your tracking list is empty




NASA's NSSDC Master Catalog

Two Line Element Set (TLE):
1  6256U 72085A   19204.72764102 -.00000015  00000-0 -16069-4 0  9990
2  6256  81.2720  74.7329 0027165 104.4748 255.9439 14.08906448400557
Source of the keplerian elements: AFSPC